Погода в Малой Быковке

Россия / Саратовская область     51°53′42″N   47°45′14″E
темп.,
°C
ветер,
м/с
пор.,
м/с
влажн.,
%
обл.,
%
осадки,
мм/ч
давл.,
гПа
погр.,
м
13 апреля, вт
вт1301:00+11вюв336940 0.0 103227
04:00+9всв337018 0.0 103336
07:00+8всв34665 0.0 103371
10:00+14вюв47415 0.0 1033431
13:00+19вюв56285 0.0 1032930
16:00+21юв56265 0.0 10311284
19:00+16вюв48394 0.0 1030127
22:00+12вюв46515 0.0 103088
14 апреля, ср
ср1401:00+10в34615 0.0 103039
04:00+8всв34703 0.0 102947
07:00+7всв36825 0.0 1028116
10:00+14вюв58565 0.0 1027605
13:00+19вюв78370 0.0 10251326
16:00+20вюв68335 0.0 10231655
19:00+17вюв47480 0.0 1022142
22:00+12вюв48650 0.0 1023120
15 апреля, чт
чт1501:00+11в34720 0.0 102149
04:00+9всв337813 0.0 102130
07:00+9всв357790 0.0 102186
10:00+15в4554100 0.0 1020384
13:00+21юв463567 0.0 10181105
16:00+22ююв452963 0.0 10171630
19:00+19юв334013 0.0 101732
22:00+15юв3453100 0.0 101754
16 апреля, пт
пт1601:00+13всв215653 0.0 101710
04:00+11всв225963 0.0 101716
07:00+10св336268 0.0 101742
10:00+16всв354747 0.0 1018399
13:00+20в343314 0.0 10181576
16:00+21в342648 0.0 10172313
19:00+18св354263 0.0 101786
22:00+15всв344982 0.0 101938
17 апреля, сб
сб1701:00+11св476677 0.0 1019106
04:00+11св51084100 0.0 1020226
07:00+9св5108793 0.0 1021315
10:00+13всв796679 0.0 1022611
13:00+16всв674787 0.0 10221041
16:00+17всв664059 0.0 10221369
19:00+14всв594562 0.0 1022338
22:00+10св4105541 0.0 1022218